This is the latest recevied weather packets stored in our database for station/object KA1JKB. If no packets are shown the sender has not sent any weather packets the latest 10 day(s).
| Time | Temp. | Humidity | Pressure | Rain* | Wind** | Luminosity | Snow |
|---|---|---|---|---|---|---|---|
| 1788276587 | 28.89° C | 82% | 1013.4 hPa | 0 mm | - | 525 W/m² | - |
| 1788276286 | 28.89° C | 83% | 1013.3 hPa | 0 mm | - | 643 W/m² | - |
| 1788275981 | 28.33° C | 84% | 1013.4 hPa | 0 mm | - | 509 W/m² | - |
| 1788275676 | 28.89° C | 82% | 1013.2 hPa | 0 mm | - | 599 W/m² | - |
| 1788275375 | 28.89° C | 82% | 1013.2 hPa | 0 mm | - | 665 W/m² | - |
| 1788275073 | 28.33° C | 83% | 1013.2 hPa | 0 mm | - | 603 W/m² | - |
| 1788274771 | 28.33° C | 81% | 1013.3 hPa | 0 mm | - | 658 W/m² | - |
| 1788274471 | 27.78° C | 84% | 1013.2 hPa | 0 mm | - | 654 W/m² | - |
| 1788274165 | 27.78° C | 84% | 1013.4 hPa | 0 mm | - | 560 W/m² | - |
| 1788273861 | 27.78° C | 85% | 1013.4 hPa | 0 mm | - | 622 W/m² | - |
| 1788273556 | 26.67° C | 86% | 1013.4 hPa | 0 mm | - | 653 W/m² | - |
| 1788273253 | 27.22° C | 85% | 1013.6 hPa | 0 mm | - | 324 W/m² | - |
| 1788272949 | 26.67° C | 86% | 1013.5 hPa | 0 mm | - | 532 W/m² | - |
| 1788272648 | 26.67° C | 87% | 1013.6 hPa | 0 mm | - | 542 W/m² | - |
| 1788272343 | 26.11° C | 89% | 1013.6 hPa | 0 mm | - | 510 W/m² | - |
| 1788272038 | 25.56° C | 91% | 1013.5 hPa | 0 mm | - | 463 W/m² | - |
| 1788271737 | 25° C | 92% | 1013.6 hPa | 0 mm | - | 231 W/m² | - |
| 1788271435 | 25° C | 93% | 1013.3 hPa | 0 mm | - | 223 W/m² | - |
| 1788271130 | 24.44° C | 93% | 1013.3 hPa | 0 mm | - | 203 W/m² | - |
| 1788270826 | 24.44° C | 93% | 1013.3 hPa | 0 mm | - | 197 W/m² | - |
| 1788270522 | 24.44° C | 93% | 1013.3 hPa | 0 mm | - | 194 W/m² | - |
| 1788270217 | 23.89° C | 94% | 1013.2 hPa | 0 mm | - | 188 W/m² | - |
| 1788269916 | 23.89° C | 94% | 1013.1 hPa | 0 mm | - | 175 W/m² | - |
| 1788269616 | 23.89° C | 95% | 1013.1 hPa | 0 mm | - | 150 W/m² | - |
| 1788269314 | 23.89° C | 96% | 1013.1 hPa | 0 mm | - | 164 W/m² | - |
* Rain latest hour (hover to see other rain measurements)
** Current wind speed in m/s (hover to see current wind gust speed)